Location: Newark
(49.3000°N, 9.4667°E)
Time: 18:50:24
(UTC+00:00)

S-56A Canister/Altair - Pass Details

Date: 19 May 2019
Orbit: 633 x 2499 km, 38.9° (Epoch: 16 June)

Event Time Altitude Azimuth Distance (km) Brightness Sun altitude
Exits shadow 00:31:03 13° 150° (SSE) 2,958 10.1 -19.2°
Maximum altitude 00:33:10 14° 133° (SE) 3,035 10.3 -19.1°
Drops below altitude 10° 00:37:39 10° 104° (ESE) 3,753 11.1 -18.8°
Sets 00:43:20 0° 84° (E) 5,188 12.1 -18.5°
